Hourly Data Report for October 17, 2015

All times are specified in Local Standard Time (LST). Add 1 hour to adjust for Daylight Saving Time where and when it is observed.

BAKER LAKE A
NUNAVUT

64°17'56.000" N
96°04'40.000" W
18.60 m
2300503
71926
YBK

Download Data

Hourly Data (October 2015)
Hourly Data Report for October 17, 2015
Temp Definition
°C
Dew Point Temp Definition
°C
Rel Hum Definition
%
Wind Dir Definition
10's deg

Wind Spd Definition
km/h
Visibility Definition
km
Stn Press Definition
kPa
Hmdx Definition


Wind Chill Definition


Weather Definition


TIME
00:00 Legend Double Dagger -4.1 -5.7 89 30 17 24.1 101.70   -10 Snow
01:00 Legend Double Dagger -4.3 -6.0 88 30 19 24.1 101.70   -10 Snow
02:00 Legend Double Dagger -4.2 -5.8 89 30 19 24.1 101.70   -10 Snow
03:00 Legend Double Dagger -4.2 -6.2 86 31 22 24.1 101.70   -11 Cloudy
04:00 Legend Double Dagger -4.2 -6.2 86 31 19 24.1 101.73   -10 LegendNANA
05:00 Legend Double Dagger -4.5 -6.2 88 32 19 24.1 101.75   -11 LegendNANA
06:00 Legend Double Dagger -4.6 -6.0 90 31 21 24.1 101.76   -11 Snow
07:00 Legend Double Dagger -4.9 -6.2 91 31 20 32.2 101.74   -11 Snow
08:00 Legend Double Dagger -4.2 -5.9 88 32 25 32.2 101.74   -11 Snow
09:00 Legend Double Dagger -4.4 -6.1 88 32 21 32.2 101.73   -11 Mostly Cloudy
10:00 Legend Double Dagger -4.2 -5.8 89 31 26 32.2 101.69   -11 LegendNANA
11:00 Legend Double Dagger -4.2 -6.4 85 31 22 32.2 101.70   -11 LegendNANA
12:00 Legend Double Dagger -4.3 -7.1 81 31 22 32.2 101.69   -11 Mostly Cloudy
13:00 Legend Double Dagger -5.4 -6.6 91 30 23 32.2 101.66   -13 LegendNANA
14:00 Legend Double Dagger -5.7 -7.1 90 31 27 32.2 101.66   -14 LegendNANA
15:00 Legend Double Dagger -6.6 -7.6 93 32 13 32.2 101.65   -12 Mostly Cloudy
16:00 Legend Double Dagger -7.4 -9.1 88 30 10 32.2 101.62   -12 LegendNANA
17:00
18:00 Legend Double Dagger -10.6 -11.9 90 32 13 24.1 101.49   -17 Mainly Clear
19:00 Legend Double Dagger -10.4 -11.7 90 20 10 24.1 101.44   -16 LegendNANA
20:00 Legend Double Dagger -10.3 -11.6 90 27 4 24.1 101.38   -13 LegendNANA
21:00 Legend Double Dagger -10.0 -11.1 92 32 7 24.1 101.28   -14 Mainly Clear
22:00 Legend Double Dagger -10.3 -11.4 92 22 11 24.1 101.24   -16 LegendNANA
23:00 Legend Double Dagger -9.5 -10.6 92 36 1 24.1 101.16   -10 LegendNANA

Notes on Data Quality.

Legend

  • E = Estimated
  • M = Missing
  • NA = Not Available
  • ‡ = Partner data that is not subject to review by the National Climate Archives
Date modified: